NKS1203 KDEN-KLAS

Flight info

Callsign NKS1203
Flight time 1h 19m
Altitude 36000
Route CONNR8 WERNR ZAKRY CHESZ GGAPP CHOWW4
Aircraft A321/M-SDE3FGHIRWY/LB1

Departure

Time 2026-05-07 03:17
Airport Denver International Airport (KDEN)

Arrival

Time 2026-05-07 04:36
Airport Harry Reid International Airport (KLAS)
Time Latitude Longitude Altitude Speed Heading
2026-05-07 02:50 39.86356 -104.67523 5377 ft 0 kts 179°
2026-05-07 03:05 39.86374 -104.67523 5373 ft 4 kts 179°
2026-05-07 03:05 39.86401 -104.67523 5374 ft 4 kts 179°
2026-05-07 03:05 39.86425 -104.67524 5374 ft 0 kts 179°
2026-05-07 03:10 39.86418 -104.67520 5375 ft 4 kts 156°
2026-05-07 03:10 39.86414 -104.67476 5377 ft 6 kts 81°
2026-05-07 03:10 39.86414 -104.67408 5377 ft 9 kts 90°
2026-05-07 03:10 39.86413 -104.67295 5377 ft 17 kts 91°
2026-05-07 03:11 39.86412 -104.67139 5374 ft 18 kts 90°
2026-05-07 03:11 39.86410 -104.66967 5375 ft 20 kts 90°
2026-05-07 03:11 39.86409 -104.66783 5377 ft 21 kts 90°
2026-05-07 03:11 39.86407 -104.66598 5377 ft 19 kts 90°
2026-05-07 03:12 39.86448 -104.66505 5376 ft 13 kts
2026-05-07 03:12 39.86501 -104.66456 5376 ft 7 kts 78°
2026-05-07 03:12 39.86501 -104.66381 5377 ft 9 kts 90°
2026-05-07 03:12 39.86500 -104.66291 5378 ft 10 kts 90°
2026-05-07 03:13 39.86500 -104.66228 5381 ft 6 kts 90°
2026-05-07 03:13 39.86500 -104.66200 5381 ft 0 kts 90°
2026-05-07 03:13 39.86500 -104.66144 5383 ft 12 kts 90°
2026-05-07 03:14 39.86498 -104.65988 5378 ft 23 kts 91°
2026-05-07 03:14 39.86497 -104.65745 5371 ft 25 kts 90°
2026-05-07 03:14 39.86493 -104.65263 5364 ft 28 kts 90°
2026-05-07 03:15 39.86492 -104.65039 5359 ft 21 kts 89°
2026-05-07 03:15 39.86490 -104.64840 5355 ft 24 kts 91°
2026-05-07 03:15 39.86489 -104.64640 5351 ft 19 kts 90°
2026-05-07 03:15 39.86487 -104.64473 5347 ft 16 kts 90°
2026-05-07 03:16 39.86487 -104.64352 5345 ft 11 kts 91°
2026-05-07 03:16 39.86486 -104.64271 5346 ft 8 kts 91°
2026-05-07 03:16 39.86484 -104.64191 5348 ft 11 kts 93°
2026-05-07 03:16 39.86405 -104.64132 5347 ft 19 kts 181°
2026-05-07 03:17 39.86118 -104.64136 5349 ft 73 kts 180°
2026-05-07 03:17 39.85399 -104.64144 5356 ft 132 kts 180°
2026-05-07 03:17 39.84310 -104.64157 5404 ft 176 kts 180°
2026-05-07 03:17 39.83100 -104.64314 6090 ft 175 kts 195°
2026-05-07 03:18 39.82148 -104.65294 6662 ft 184 kts 243°
2026-05-07 03:18 39.81994 -104.66956 7178 ft 187 kts 272°
2026-05-07 03:18 39.82167 -104.68624 7689 ft 187 kts 278°
2026-05-07 03:18 39.82388 -104.70292 8202 ft 187 kts 279°
2026-05-07 03:19 39.82606 -104.72024 8415 ft 205 kts 279°
2026-05-07 03:19 39.82827 -104.73944 8554 ft 224 kts 278°
2026-05-07 03:19 39.83048 -104.76045 8674 ft 245 kts 278°
2026-05-07 03:19 39.83270 -104.78341 8926 ft 265 kts 278°
2026-05-07 03:20 39.83488 -104.80763 9477 ft 273 kts 278°
2026-05-07 03:20 39.83696 -104.83215 9613 ft 272 kts 278°
2026-05-07 03:20 39.83896 -104.85654 9741 ft 271 kts 278°
2026-05-07 03:20 39.84091 -104.88098 9887 ft 271 kts 278°
2026-05-07 03:21 39.84220 -104.90546 10095 ft 275 kts 268°
2026-05-07 03:21 39.83755 -104.92997 10690 ft 281 kts 258°
2026-05-07 03:21 39.83238 -104.95457 11372 ft 283 kts 260°
2026-05-07 03:21 39.82750 -104.97950 12036 ft 286 kts 261°
2026-05-07 03:22 39.82267 -105.00484 12685 ft 290 kts 261°
2026-05-07 03:22 39.81776 -105.03044 13326 ft 294 kts 261°
2026-05-07 03:22 39.81268 -105.05642 13965 ft 298 kts 261°
2026-05-07 03:22 39.80748 -105.08267 14518 ft 302 kts 261°
2026-05-07 03:23 39.80215 -105.10927 15082 ft 306 kts 261°
2026-05-07 03:23 39.79722 -105.13376 15589 ft 309 kts 261°
2026-05-07 03:23 39.79175 -105.16092 16146 ft 313 kts 261°
2026-05-07 03:23 39.78617 -105.18854 16693 ft 317 kts 261°
2026-05-07 03:24 39.78060 -105.21605 17228 ft 321 kts 261°
2026-05-07 03:24 39.77489 -105.24424 17760 ft 324 kts 261°
2026-05-07 03:24 39.76902 -105.27310 18291 ft 328 kts 261°
2026-05-07 03:24 39.76322 -105.30158 18754 ft 332 kts 261°
2026-05-07 03:25 39.75722 -105.33102 19238 ft 334 kts 261°
2026-05-07 03:25 39.75131 -105.35995 19707 ft 337 kts 261°
2026-05-07 03:25 39.74521 -105.38984 20180 ft 340 kts 261°
2026-05-07 03:25 39.73920 -105.41927 20637 ft 343 kts 261°
2026-05-07 03:26 39.73297 -105.44980 20984 ft 351 kts 261°
2026-05-07 03:26 39.72671 -105.48066 21113 ft 365 kts 261°
2026-05-07 03:26 39.72001 -105.51360 21245 ft 379 kts 261°
2026-05-07 03:26 39.71322 -105.54659 21554 ft 387 kts 261°
2026-05-07 03:27 39.70619 -105.58049 22009 ft 391 kts 261°
2026-05-07 03:27 39.69912 -105.61473 22505 ft 394 kts 261°
2026-05-07 03:27 39.69202 -105.64929 22960 ft 397 kts 261°
2026-05-07 03:27 39.68534 -105.68422 23286 ft 403 kts 263°
2026-05-07 03:28 39.67973 -105.72035 23421 ft 413 kts 265°
2026-05-07 03:28 39.67481 -105.75758 23556 ft 423 kts 266°
2026-05-07 03:28 39.67016 -105.79572 23714 ft 432 kts 266°
2026-05-07 03:28 39.66546 -105.83461 23912 ft 439 kts 266°
2026-05-07 03:29 39.66052 -105.87395 24244 ft 443 kts 265°
2026-05-07 03:29 39.65532 -105.91347 24591 ft 445 kts 265°
2026-05-07 03:29 39.64989 -105.95314 24930 ft 448 kts 265°
2026-05-07 03:29 39.64432 -105.99301 25287 ft 450 kts 265°
2026-05-07 03:30 39.63866 -106.03300 25646 ft 452 kts 265°
2026-05-07 03:30 39.63295 -106.07324 25998 ft 454 kts 265°
2026-05-07 03:30 39.62723 -106.11360 26323 ft 456 kts 265°
2026-05-07 03:30 39.62150 -106.15420 26683 ft 458 kts 265°
2026-05-07 03:31 39.61576 -106.19494 27000 ft 461 kts 265°
2026-05-07 03:31 39.61002 -106.23588 27318 ft 463 kts 265°
2026-05-07 03:31 39.60425 -106.27708 27624 ft 465 kts 265°
2026-05-07 03:31 39.59848 -106.31843 27935 ft 467 kts 265°
2026-05-07 03:32 39.59267 -106.35994 28199 ft 469 kts 265°
2026-05-07 03:32 39.58677 -106.40164 28466 ft 472 kts 265°
2026-05-07 03:32 39.58078 -106.44358 28783 ft 474 kts 265°
2026-05-07 03:32 39.57476 -106.48553 29219 ft 473 kts 265°
2026-05-07 03:33 39.56875 -106.52736 29650 ft 472 kts 265°
2026-05-07 03:33 39.56274 -106.56911 30085 ft 471 kts 265°
2026-05-07 03:33 39.55672 -106.61081 30469 ft 470 kts 265°
2026-05-07 03:33 39.55064 -106.65236 30820 ft 471 kts 263°
2026-05-07 03:34 39.54121 -106.69331 31204 ft 476 kts 254°
2026-05-07 03:34 39.52874 -106.73302 31539 ft 476 kts 253°
2026-05-07 03:34 39.51620 -106.77280 31925 ft 474 kts 253°
2026-05-07 03:34 39.50386 -106.81205 32283 ft 472 kts 253°
2026-05-07 03:35 39.49150 -106.85131 32643 ft 470 kts 253°
2026-05-07 03:35 39.47918 -106.89047 33076 ft 469 kts 253°
2026-05-07 03:35 39.46689 -106.92957 33432 ft 468 kts 253°
2026-05-07 03:35 39.45465 -106.96845 33762 ft 467 kts 253°
2026-05-07 03:36 39.44240 -107.00727 34056 ft 466 kts 253°
2026-05-07 03:36 39.43015 -107.04598 34374 ft 464 kts 253°
2026-05-07 03:36 39.41791 -107.08459 34641 ft 463 kts 254°
2026-05-07 03:36 39.40571 -107.12300 34909 ft 461 kts 253°
2026-05-07 03:37 39.39352 -107.16132 35183 ft 460 kts 253°
2026-05-07 03:37 39.38132 -107.19955 35455 ft 460 kts 253°
2026-05-07 03:37 39.36858 -107.23742 35702 ft 460 kts 251°
2026-05-07 03:37 39.35507 -107.27497 35981 ft 460 kts 250°
2026-05-07 03:38 39.34104 -107.31223 36123 ft 463 kts 249°
2026-05-07 03:38 39.31220 -107.38755 36158 ft 471 kts 249°
2026-05-07 03:39 39.28337 -107.46374 36162 ft 473 kts 250°
2026-05-07 03:39 39.25488 -107.54021 36173 ft 473 kts 250°
2026-05-07 03:40 39.22643 -107.61664 36185 ft 473 kts 250°
2026-05-07 03:40 39.19789 -107.69300 36194 ft 473 kts 250°
2026-05-07 03:41 39.16918 -107.76932 36168 ft 474 kts 249°
2026-05-07 03:41 39.14040 -107.84566 36184 ft 474 kts 249°
2026-05-07 03:42 39.11152 -107.92204 36185 ft 474 kts 249°
2026-05-07 03:42 39.08253 -107.99838 36206 ft 475 kts 249°
2026-05-07 03:43 39.05380 -108.07421 36210 ft 475 kts 249°
2026-05-07 03:43 39.02481 -108.15056 36203 ft 475 kts 249°
2026-05-07 03:44 38.99572 -108.22682 36201 ft 475 kts 249°
2026-05-07 03:44 38.96651 -108.30303 36192 ft 476 kts 249°
2026-05-07 03:45 38.93716 -108.37927 36199 ft 476 kts 249°
2026-05-07 03:45 38.90786 -108.45551 36172 ft 476 kts 249°
2026-05-07 03:46 38.87852 -108.53178 36181 ft 476 kts 249°
2026-05-07 03:46 38.85405 -108.59500 36178 ft 476 kts 248°
2026-05-07 03:47 38.82451 -108.67115 36179 ft 476 kts 249°
2026-05-07 03:47 38.79503 -108.74723 36174 ft 476 kts 248°
2026-05-07 03:48 38.76545 -108.82323 36166 ft 476 kts 248°
2026-05-07 03:48 38.73585 -108.89909 36176 ft 476 kts 248°
2026-05-07 03:49 38.70628 -108.97481 36171 ft 475 kts 248°
2026-05-07 03:49 38.67661 -109.05039 36169 ft 475 kts 248°
2026-05-07 03:50 38.64683 -109.12594 36131 ft 475 kts 248°
2026-05-07 03:50 38.61705 -109.20140 36141 ft 476 kts 248°
2026-05-07 03:51 38.58704 -109.27698 36142 ft 477 kts 248°
2026-05-07 03:51 38.55712 -109.35257 36149 ft 477 kts 248°
2026-05-07 03:52 38.52719 -109.42823 36142 ft 477 kts 248°
2026-05-07 03:52 38.49718 -109.50386 36135 ft 477 kts 248°
2026-05-07 03:53 38.46707 -109.57935 36135 ft 477 kts 247°
2026-05-07 03:53 38.43691 -109.65475 36144 ft 477 kts 247°
2026-05-07 03:54 38.40668 -109.73011 36138 ft 477 kts 247°
2026-05-07 03:54 38.37646 -109.80537 36109 ft 477 kts 247°
2026-05-07 03:55 38.34622 -109.88046 36126 ft 477 kts 247°
2026-05-07 03:55 38.31574 -109.95543 36127 ft 476 kts 247°
2026-05-07 03:56 38.28546 -110.02984 36134 ft 476 kts 247°
2026-05-07 03:56 38.25700 -110.10627 36111 ft 474 kts 251°
2026-05-07 03:57 38.23157 -110.18319 36097 ft 475 kts 252°
2026-05-07 03:57 38.20578 -110.26064 36097 ft 476 kts 251°
2026-05-07 03:58 38.17904 -110.33777 36109 ft 477 kts 250°
2026-05-07 03:58 38.15182 -110.41469 36108 ft 478 kts 250°
2026-05-07 03:59 38.12468 -110.49175 36088 ft 477 kts 250°
2026-05-07 03:59 38.09776 -110.56879 36097 ft 477 kts 250°
2026-05-07 04:00 38.07078 -110.64582 36092 ft 477 kts 250°
2026-05-07 04:00 38.04365 -110.72274 36092 ft 478 kts 250°
2026-05-07 04:01 38.01641 -110.79962 36086 ft 478 kts 250°
2026-05-07 04:01 37.98921 -110.87647 36068 ft 478 kts 250°
2026-05-07 04:02 37.96194 -110.95329 36073 ft 479 kts 250°
2026-05-07 04:02 37.93451 -111.03022 36076 ft 479 kts 250°
2026-05-07 04:03 37.90705 -111.10707 36075 ft 479 kts 250°
2026-05-07 04:03 37.87959 -111.18383 36061 ft 479 kts 250°
2026-05-07 04:04 37.85202 -111.26066 36066 ft 479 kts 250°
2026-05-07 04:04 37.82441 -111.33738 36064 ft 480 kts 250°
2026-05-07 04:05 37.79668 -111.41420 35923 ft 480 kts 249°
2026-05-07 04:05 37.78279 -111.45258 35673 ft 480 kts 249°
2026-05-07 04:05 37.76887 -111.49092 35428 ft 480 kts 249°
2026-05-07 04:05 37.75497 -111.52932 35186 ft 481 kts 249°
2026-05-07 04:06 37.74102 -111.56775 34949 ft 481 kts 249°
2026-05-07 04:06 37.72707 -111.60615 34712 ft 482 kts 249°
2026-05-07 04:06 37.71306 -111.64468 34466 ft 483 kts 249°
2026-05-07 04:06 37.69902 -111.68326 34230 ft 483 kts 249°
2026-05-07 04:07 37.68496 -111.72185 34013 ft 484 kts 249°
2026-05-07 04:07 37.67087 -111.76044 33770 ft 485 kts 249°
2026-05-07 04:07 37.65673 -111.79912 33521 ft 486 kts 249°
2026-05-07 04:07 37.64255 -111.83788 33279 ft 487 kts 249°
2026-05-07 04:08 37.62831 -111.87668 33052 ft 488 kts 249°
2026-05-07 04:08 37.61404 -111.91548 32801 ft 488 kts 249°
2026-05-07 04:08 37.59993 -111.95386 32562 ft 489 kts 249°
2026-05-07 04:08 37.58560 -111.99278 32327 ft 490 kts 249°
2026-05-07 04:09 37.57126 -112.03174 32193 ft 490 kts 249°
2026-05-07 04:09 37.54245 -112.10990 32234 ft 492 kts 249°
2026-05-07 04:10 37.50753 -112.18451 32201 ft 497 kts 240°
2026-05-07 04:10 37.46969 -112.25735 32159 ft 497 kts 240°
2026-05-07 04:11 37.43189 -112.33017 32101 ft 497 kts 240°
2026-05-07 04:11 37.39409 -112.40300 32066 ft 497 kts 240°
2026-05-07 04:12 37.35627 -112.47581 32030 ft 498 kts 240°
2026-05-07 04:12 37.31835 -112.54863 32040 ft 499 kts 239°
2026-05-07 04:13 37.28019 -112.62147 32045 ft 499 kts 239°
2026-05-07 04:13 37.24192 -112.69428 32036 ft 500 kts 239°
2026-05-07 04:14 37.20363 -112.76712 32062 ft 500 kts 239°
2026-05-07 04:14 37.16528 -112.84004 32105 ft 501 kts 239°
2026-05-07 04:15 37.12691 -112.91285 32146 ft 501 kts 239°
2026-05-07 04:15 37.08843 -112.98567 32186 ft 501 kts 239°
2026-05-07 04:16 37.04993 -113.05837 32215 ft 501 kts 239°
2026-05-07 04:16 37.01161 -113.13051 32184 ft 487 kts 238°
2026-05-07 04:17 36.97442 -113.20021 32167 ft 479 kts 239°
2026-05-07 04:17 36.93751 -113.26945 31953 ft 479 kts 239°
2026-05-07 04:17 36.91903 -113.30411 31671 ft 479 kts 238°
2026-05-07 04:18 36.90051 -113.33885 30697 ft 486 kts 238°
2026-05-07 04:18 36.88158 -113.37431 29581 ft 494 kts 238°
2026-05-07 04:18 36.86250 -113.40992 28971 ft 490 kts 238°
2026-05-07 04:18 36.84361 -113.44508 28307 ft 487 kts 238°
2026-05-07 04:19 36.82479 -113.48005 27643 ft 484 kts 238°
2026-05-07 04:19 36.80631 -113.51436 26950 ft 481 kts 238°
2026-05-07 04:19 36.78752 -113.54929 26312 ft 477 kts 238°
2026-05-07 04:19 36.76913 -113.58357 25660 ft 474 kts 238°
2026-05-07 04:20 36.75113 -113.61717 25025 ft 472 kts 238°
2026-05-07 04:20 36.73260 -113.65173 24360 ft 486 kts 238°
2026-05-07 04:20 36.71376 -113.68683 23691 ft 487 kts 238°
2026-05-07 04:21 36.67628 -113.75643 22314 ft 480 kts 238°
2026-05-07 04:21 36.65773 -113.79078 21675 ft 476 kts 237°
2026-05-07 04:21 36.63930 -113.82484 21043 ft 473 kts 237°
2026-05-07 04:21 36.62096 -113.85865 20423 ft 469 kts 237°
2026-05-07 04:22 36.60276 -113.89219 19806 ft 466 kts 237°
2026-05-07 04:22 36.58465 -113.92539 19235 ft 462 kts 237°
2026-05-07 04:22 36.56594 -113.95772 18670 ft 459 kts 234°
2026-05-07 04:22 36.54661 -113.98922 18117 ft 456 kts 233°
2026-05-07 04:23 36.52702 -114.02002 17493 ft 453 kts 232°
2026-05-07 04:23 36.50745 -114.05042 16935 ft 447 kts 232°
2026-05-07 04:23 36.48819 -114.08047 16322 ft 442 kts 233°
2026-05-07 04:23 36.46930 -114.11031 15708 ft 437 kts 233°
2026-05-07 04:24 36.45072 -114.13997 15106 ft 433 kts 233°
2026-05-07 04:24 36.43240 -114.16948 14572 ft 429 kts 234°
2026-05-07 04:24 36.41434 -114.19870 14026 ft 425 kts 234°
2026-05-07 04:24 36.39641 -114.22764 13442 ft 421 kts 234°
2026-05-07 04:25 36.37855 -114.25618 12857 ft 417 kts 233°
2026-05-07 04:25 36.36071 -114.28426 12245 ft 412 kts 233°
2026-05-07 04:25 36.34298 -114.31193 11645 ft 408 kts 233°
2026-05-07 04:25 36.32540 -114.33929 11096 ft 403 kts 233°
2026-05-07 04:26 36.30827 -114.36600 10866 ft 388 kts 233°
2026-05-07 04:26 36.29178 -114.39171 10605 ft 374 kts 233°
2026-05-07 04:26 36.27587 -114.41653 10374 ft 362 kts 233°
2026-05-07 04:26 36.26072 -114.44085 10133 ft 349 kts 239°
2026-05-07 04:27 36.25017 -114.46713 9932 ft 334 kts 254°
2026-05-07 04:27 36.24303 -114.49395 9853 ft 320 kts 255°
2026-05-07 04:27 36.23613 -114.51942 9857 ft 305 kts 255°
2026-05-07 04:27 36.22941 -114.54415 9859 ft 302 kts 255°
2026-05-07 04:28 36.22271 -114.56880 9701 ft 302 kts 255°
2026-05-07 04:28 36.21604 -114.59335 9495 ft 300 kts 255°
2026-05-07 04:28 36.20941 -114.61773 9298 ft 299 kts 254°
2026-05-07 04:28 36.20278 -114.64207 9118 ft 297 kts 254°
2026-05-07 04:29 36.19614 -114.66636 8813 ft 299 kts 254°
2026-05-07 04:29 36.18950 -114.69071 8451 ft 298 kts 254°
2026-05-07 04:29 36.18290 -114.71491 8105 ft 296 kts 254°
2026-05-07 04:29 36.17632 -114.73902 7741 ft 295 kts 254°
2026-05-07 04:30 36.16979 -114.76297 7396 ft 293 kts 253°
2026-05-07 04:30 36.16326 -114.78675 7146 ft 289 kts 253°
2026-05-07 04:30 36.15689 -114.80986 7026 ft 279 kts 253°
2026-05-07 04:30 36.15072 -114.83221 6845 ft 272 kts 253°
2026-05-07 04:31 36.14475 -114.85397 6751 ft 262 kts 253°
2026-05-07 04:31 36.13904 -114.87472 6686 ft 248 kts 253°
2026-05-07 04:31 36.13553 -114.88804 6616 ft 243 kts 258°
2026-05-07 04:31 36.13395 -114.91493 6064 ft 233 kts 277°
2026-05-07 04:32 36.13475 -114.92808 5942 ft 230 kts 277°
2026-05-07 04:32 36.13589 -114.94777 5788 ft 226 kts 277°
2026-05-07 04:32 36.13751 -114.97269 5380 ft 214 kts 277°
2026-05-07 04:32 36.13831 -114.98503 5198 ft 212 kts 277°
2026-05-07 04:33 36.13934 -115.00314 4929 ft 211 kts 276°
2026-05-07 04:33 36.14027 -115.02116 4681 ft 208 kts 274°
2026-05-07 04:33 36.14114 -115.03891 4424 ft 205 kts 273°
2026-05-07 04:33 36.14198 -115.05647 4173 ft 203 kts 273°
2026-05-07 04:34 36.14254 -115.07343 3992 ft 191 kts 270°
2026-05-07 04:34 36.14241 -115.08901 3777 ft 175 kts 268°
2026-05-07 04:34 36.14215 -115.10324 3574 ft 159 kts 268°
2026-05-07 04:34 36.14079 -115.11656 3376 ft 154 kts 259°
2026-05-07 04:35 36.13782 -115.12910 3165 ft 152 kts 240°
2026-05-07 04:35 36.13054 -115.13852 2922 ft 153 kts 211°
2026-05-07 04:35 36.12100 -115.14421 2673 ft 153 kts 203°
2026-05-07 04:35 36.11135 -115.14965 2484 ft 153 kts 205°
2026-05-07 04:36 36.10170 -115.15522 2261 ft 152 kts 205°
2026-05-07 04:36 36.09220 -115.16064 2130 ft 143 kts 207°
2026-05-07 04:36 36.08434 -115.16524 2141 ft 103 kts 205°
2026-05-07 04:36 36.07973 -115.16785 2155 ft 23 kts 204°
2026-05-07 04:37 36.07863 -115.16842 2166 ft 15 kts 192°
2026-05-07 04:37 36.07803 -115.16776 2159 ft 14 kts 92°
2026-05-07 04:37 36.07836 -115.16709 2157 ft 11 kts 10°
2026-05-07 04:37 36.07915 -115.16671 2155 ft 14 kts 25°
2026-05-07 04:38 36.08011 -115.16616 2153 ft 17 kts 25°
2026-05-07 04:38 36.08129 -115.16548 2147 ft 14 kts 26°
2026-05-07 04:38 36.08161 -115.16469 2143 ft 6 kts 87°
2026-05-07 04:38 36.08163 -115.16386 2139 ft 13 kts 88°
2026-05-07 04:39 36.08163 -115.16254 2132 ft 19 kts 91°
2026-05-07 04:39 36.08197 -115.16090 2122 ft 23 kts 35°
2026-05-07 04:39 36.08345 -115.15998 2116 ft 24 kts 23°
2026-05-07 04:39 36.08506 -115.15909 2112 ft 26 kts 24°
2026-05-07 04:40 36.08628 -115.15816 2108 ft 17 kts 66°
2026-05-07 04:40 36.08547 -115.15719 2105 ft 18 kts 153°
2026-05-07 04:40 36.08503 -115.15613 2100 ft 12 kts 102°
2026-05-07 04:40 36.08482 -115.15528 2098 ft 10 kts 75°
2026-05-07 04:41 36.08502 -115.15485 2098 ft 2 kts 56°
2026-05-07 04:41 36.08503 -115.15483 2098 ft 0 kts 56°